Chiang Mai, Thailand

9:58 AM +07 on December 13, 2017 (GMT +0700)
Chiang Mai International

Weather History for VTCC - March, 2013

Change the Weather History Date:

Friday, March 1, 2013

  Actual Average Record
Temperature  
Mean Temperature 82 °F -  
Max Temperature 99 °F 92 °F 100 °F (1998)
Min Temperature 66 °F 66 °F 57 °F (2003)
Cooling Degree Days 18    
Growing Degree Days 32 (Base 50)    
Moisture  
Dew Point 56 °F    
Average Humidity 44    
Maximum Humidity 73    
Minimum Humidity 18    
Precipitation  
Precipitation 0.00 in 0.02 in - ()
Sea Level Pressure  
Sea Level Pressure 29.86 in    
Wind  
Wind Speed 2 mph ()    
Max Wind Speed 6 mph    
Max Gust Speed -    
Visibility 4.4 miles    
Events      
Averages and records for this station are not official NWS values.
T = Trace of Precipitation, MM = Missing Value Source: Averaged Metar Reports

Daily Weather History Graph

Daily Weather History Graph

Search for Another Location

Airport or City:

Trip Planner

Search our weather history database for the weather conditions in past years. The results will help you decide how hot, cold, wet, or windy it might be!

Date:

Astronomy

Mar. 01, 2013 Rise Set
Actual Time 6:43 AM +07 6:29 PM +07
Civil Twilight 6:21 AM +07 6:51 PM +07
Nautical Twilight 5:55 AM +07 7:17 PM +07
Astronomical Twilight 5:30 AM +07 7:42 PM +07
Moon 9:46 PM +07 (3/1) 8:46 AM +07 (3/1)
Length of Visible Light 12h 30m
Length of Day
11h 46m
Waning Gibbous, 87% of the Moon is Illuminated
Mar 1
Waning Gibbous
Mar 5
Last Quarter
Mar 12
New
Mar 20
First Quarter
Mar 27
Full

Hourly Weather History & Observations

Time (+07) Temp. Heat Index Dew Point Humidity Pressure Visibility Wind Dir Wind Speed Gust Speed Precip Events Conditions
12:00 AM 75.2 °F - 57.2 °F 53% 29.86 in 4.3 mi North 3.5 mph - N/A   Unknown
12:30 AM 75.2 °F - 55.4 °F 50% 29.86 in 4.3 mi North 4.6 mph - N/A   Unknown
1:00 AM 73 °F - 62 °F 59% 29.82 in 4 mi Calm Calm - -   Mist
1:00 AM 71.6 °F - 55.4 °F 57% 29.86 in 4.3 mi Calm Calm - N/A   Unknown
1:30 AM 73.4 °F - 55.4 °F 53% 29.86 in 4.3 mi SSW 2.3 mph - N/A   Unknown
2:00 AM 73.4 °F - 55.4 °F 53% 29.86 in 4.3 mi Calm Calm - N/A   Unknown
2:30 AM 71.6 °F - 55.4 °F 57% 29.86 in 4.3 mi Calm Calm - N/A   Unknown
3:00 AM 69.8 °F - 55.4 °F 60% 29.86 in 4.3 mi Calm Calm - N/A   Unknown
3:30 AM 69.8 °F - 57.2 °F 64% 29.86 in 4.3 mi Calm Calm - N/A   Unknown
4:00 AM 69.8 °F - 57.2 °F 64% 29.86 in 4.3 mi Calm Calm - N/A   Unknown
4:30 AM 68.0 °F - 55.4 °F 64% 29.83 in 4.3 mi Calm Calm - N/A   Unknown
5:00 AM 68.0 °F - 57.2 °F 68% 29.83 in 4.3 mi NNW 3.5 mph - N/A   Unknown
5:30 AM 68.0 °F - 57.2 °F 68% 29.86 in 4.3 mi Calm Calm - N/A   Unknown
6:00 AM 68.0 °F - 57.2 °F 68% 29.86 in 3.7 mi Calm Calm - N/A   Unknown
6:30 AM 68.0 °F - 57.2 °F 68% 29.89 in 3.1 mi Calm Calm - N/A   Mist
7:00 AM 67 °F - 57 °F 63% 29.86 in 3 mi Calm Calm - -   Mist
7:00 AM 66.2 °F - 57.2 °F 73% 29.89 in 3.1 mi Calm Calm - N/A   Mist
7:30 AM 66.2 °F - 57.2 °F 73% 29.89 in 3.1 mi West 3.5 mph - N/A   Mist
8:00 AM 68.0 °F - 57.2 °F 68% 29.92 in 3.1 mi Calm Calm - N/A   Mist
8:30 AM 71.6 °F - 57.2 °F 60% 29.92 in 3.1 mi Calm Calm - N/A   Haze
9:00 AM 73.4 °F - 57.2 °F 57% 29.95 in 3.1 mi Calm Calm - N/A   Haze
9:30 AM 77.0 °F - 57.2 °F 50% 29.95 in 3.1 mi Calm Calm - N/A   Haze
10:00 AM 80.6 °F 80.5 °F 55.4 °F 42% 29.95 in 3.1 mi South 2.3 mph - N/A   Haze
10:30 AM 82.4 °F 81.4 °F 53.6 °F 37% 29.95 in 3.1 mi NW 2.3 mph - N/A   Haze
11:00 AM 84.2 °F 82.8 °F 53.6 °F 35% 29.95 in 3.1 mi WNW 1.2 mph - N/A   Haze
11:30 AM 87.8 °F 85.7 °F 53.6 °F 31% 29.95 in 3.1 mi South 3.5 mph - N/A   Haze
12:00 PM 87.8 °F 85.7 °F 53.6 °F 31% 29.92 in 3.1 mi SW 4.6 mph - N/A   Haze
12:30 PM 89.6 °F 87.7 °F 55.4 °F 31% 29.92 in 3.1 mi SSE 5.8 mph - N/A   Haze
1:00 PM 93 °F - 61 °F 24% 29.81 in 3 mi SE 4.6 mph - -   Haze
1:00 PM 91.4 °F 89.4 °F 55.4 °F 29% 29.89 in 3.7 mi SSE 4.6 mph - N/A   Unknown
1:30 PM 93.2 °F 91.3 °F 55.4 °F 28% 29.86 in 4.3 mi SSE 3.5 mph - N/A   Unknown
2:00 PM 95.0 °F - 50.0 °F 22% 29.86 in 4.3 mi East 4.6 mph - N/A   Unknown
2:30 PM 96.8 °F - 51.8 °F 22% 29.83 in 4.3 mi SSE 4.6 mph - N/A   Unknown
3:00 PM 96.8 °F - 50.0 °F 20% 29.83 in 5.0 mi SE 4.6 mph - N/A   Unknown
3:30 PM 96.8 °F - 48.2 °F 19% 29.80 in 5.6 mi ESE 3.5 mph - N/A   Unknown
4:00 PM 98.6 °F - 48.2 °F 18% 29.80 in 5.6 mi South 3.5 mph - N/A   Unknown
4:30 PM 98.6 °F - 50.0 °F 19% 29.80 in 5.6 mi ESE 3.5 mph - N/A   Partly Cloudy
5:00 PM 96.8 °F - 48.2 °F 19% 29.80 in 5.6 mi ESE 2.3 mph - N/A   Partly Cloudy
5:30 PM 96.8 °F - 48.2 °F 19% 29.80 in 5.6 mi Calm Calm - N/A   Partly Cloudy
6:00 PM 95.0 °F - 50.0 °F 22% 29.80 in 5.6 mi Calm Calm - N/A   Partly Cloudy
6:30 PM 91.4 °F 89.4 °F 55.4 °F 29% 29.80 in 5.6 mi NNW 3.5 mph - N/A   Partly Cloudy
7:00 PM 90 °F - 63 °F 31% 29.73 in 5 mi Calm Calm - -   Haze
7:00 PM 89.6 °F 87.7 °F 55.4 °F 31% 29.80 in 5.6 mi Calm Calm - N/A   Partly Cloudy
7:30 PM 87.8 °F 86.1 °F 55.4 °F 33% 29.80 in 5.6 mi WNW 3.5 mph - N/A   Partly Cloudy
8:00 PM 86.0 °F 84.2 °F 53.6 °F 33% 29.83 in 5.6 mi WSW 2.3 mph - N/A   Partly Cloudy
8:30 PM 84.2 °F 83.5 °F 57.2 °F 40% 29.83 in 5.6 mi Calm Calm - N/A   Partly Cloudy
9:00 PM 82.4 °F 82.5 °F 59.0 °F 45% 29.86 in 5.6 mi Calm Calm - N/A   Partly Cloudy
9:30 PM 82.4 °F 82.5 °F 59.0 °F 45% 29.89 in 5.6 mi WNW 2.3 mph - N/A   Partly Cloudy
10:00 PM 80.6 °F 81.1 °F 59.0 °F 48% 29.89 in 5.6 mi Calm Calm - N/A   Partly Cloudy
10:30 PM 80.6 °F 81.1 °F 59.0 °F 48% 29.89 in 5.6 mi North 5.8 mph - N/A   Partly Cloudy
11:00 PM 80.6 °F 81.1 °F 59.0 °F 48% 29.89 in 5.6 mi Calm Calm - N/A   Partly Cloudy
11:30 PM 80.6 °F 81.5 °F 60.8 °F 51% 29.92 in 5.6 mi South 3.5 mph - N/A   Partly Cloudy